This is the latest recevied weather packets stored in our database for station/object DC7RY. If no packets are shown the sender has not sent any weather packets the latest 10 day(s).
| Time | Temp. | Humidity | Pressure | Rain* | Wind** | Luminosity | Snow |
|---|---|---|---|---|---|---|---|
| 1788647121 | 11.11° C | 91% | 1017.6 hPa | 0 mm | - | 0 W/m² | - |
| 1788643516 | 11.67° C | 87% | 1017 hPa | 0 mm | - | 0 W/m² | - |
| 1788642924 | 12.22° C | 87% | 1017 hPa | 0 mm | - | 0 W/m² | - |
| 1788641724 | 12.22° C | 86% | 1016.8 hPa | 0 mm | - | 0 W/m² | - |
| 1788640524 | 13.33° C | 82% | 1016.9 hPa | 0 mm | - | 0 W/m² | - |
| 1788639916 | 13.89° C | 80% | 1016.9 hPa | 0 mm | - | 0 W/m² | - |
| 1788636924 | 15° C | 71% | 1016.5 hPa | 0 mm | - | 0 W/m² | - |
| 1788636316 | 15.56° C | 72% | 1016.5 hPa | 0 mm | - | 0 W/m² | - |
| 1788635724 | 16.11° C | 73% | 1016.4 hPa | 0 mm | - | 0 W/m² | - |
| 1788635116 | 16.67° C | 70% | 1016.5 hPa | 0 mm | - | 0 W/m² | - |
| 1788634524 | 17.22° C | 64% | 1016.7 hPa | 0 mm | - | 0 W/m² | - |
| 1788633929 | 17.22° C | 61% | 1016.5 hPa | 0 mm | - | 0 W/m² | - |
| 1788633321 | 17.78° C | 60% | 1016.4 hPa | 0 mm | - | 0 W/m² | - |
| 1788632729 | 17.78° C | 60% | 1016.2 hPa | 0 mm | - | 0 W/m² | - |
| 1788632121 | 18.33° C | 59% | 1016.2 hPa | 0 mm | - | 0 W/m² | - |
| 1788631529 | 18.89° C | 58% | 1016.1 hPa | 0 mm | - | 0 W/m² | - |
| 1788630921 | 19.44° C | 57% | 1016 hPa | 0 mm | - | 1 W/m² | - |
| 1788630327 | 19.44° C | 57% | 1015.9 hPa | 0 mm | - | 6 W/m² | - |
| 1788629719 | 20° C | 56% | 1015.9 hPa | 0 mm | - | 23 W/m² | - |
| 1788629127 | 20.56° C | 53% | 1015.9 hPa | 0 mm | - | 46 W/m² | - |
| 1788628519 | 20.56° C | 51% | 1015.7 hPa | 0 mm | - | 98 W/m² | - |
| 1788627927 | 20.56° C | 52% | 1015.7 hPa | 0 mm | - | 89 W/m² | - |
| 1788627319 | 21.11° C | 52% | 1015.7 hPa | 0 mm | - | 83 W/m² | - |
| 1788626727 | 21.11° C | 50% | 1015.7 hPa | 0 mm | - | 89 W/m² | - |
| 1788626119 | 21.11° C | 49% | 1015.6 hPa | 0 mm | - | 178 W/m² | - |
* Rain latest hour (hover to see other rain measurements)
** Current wind speed in m/s (hover to see current wind gust speed)